www.pogodaiklimat.ru

Погода и климат >> Архив погоды >> Казахстан >> Кулалы Остров


ПОГОДА на Кулалы Острове

  • Прогноз погоды на Кулалы Острове
  • Монитор погоды на Кулалы Острове

АРХИВ ПОГОДЫ на Кулалы Острове

Время (UTC), дата Ветер
(напр.,м/с)
 
Видим.   Явления Облачность Т
(С)
Тd
(С)
f
(%)
Тe
(С)
Тes
(С)
Комфортность P
(гПа)
Po
(гПа)
Тmin
(С)
Tmax
(С)
R
(мм)
R24
(мм)
S
(см)
12 19.05 СВ 7 20 км 9/0
[Ci sp]
+23.5 +9.3 40 +24 +27 комфорт 1009.7 1012.5
15 19.05 С 6 20 км 9/0
[Ci sp]
+21.2 +8.0 43 +22 +23 комфорт 1009.7 1012.6 +23.8
18 19.05 С 4 20 км 9/0
[Ci sp]
+20.4 +8.4 46 +22 +22 комфорт 1010.2 1013.1 +23.8
21 19.05 С 2 20 км 8/0
[Ci sp]
+19.7 +8.6 49 +21 +21 комфорт 1010.5 1013.4
00 20.05 С 3 20 км 8/0
[Ci sp]
+19.2 +9.2 52 +20 +20 1010.7 1013.6
03 20.05 СЗ 4 20 км 8/0
[Ci sp]
+21.6 +15.6 69 +25 +26 комфорт 1011.3 1014.2
06 20.05 С 6 20 км 6/0
[Ci sp]
+23.2 +14.2 57 +27 +31 душно 1012.7 1015.5 +19.1
09 20.05 СВ 8 20 км 9/0
[Ci sp]
+24.3 +7.4 34 +25 +27 комфорт 1014.3 1017.1
12 20.05 С 9 20 км 6/0
[Ci sp]
+22.5 +9.3 43 +24 +25 комфорт 1015.0 1017.8 +24.6
15 20.05 С 6 20 км 8/0
[Ci sp]
+20.7 +7.0 41 +22 +22 комфорт 1015.8 1018.7 +24.6
18 20.05 С 4 20 км 6/0
[Ci sp]
+16.2 +6.4 52 +16 +16 1017.1 1020.0 +24.6
21 20.05 С 3 20 км 6/0
[Ci sp]
+15.6 +7.5 59 +15 +15 1018.0 1020.9
00 21.05 С 2 20 км 8/0
[Ci sp]
+15.1 +7.3 60 +15 +15 1018.7 1021.6
03 21.05 СВ 6 20 км ясно +17.4 +1.5 34 +17 +18 1020.1 1023.0
06 21.05 С 7 20 км ясно +18.4 +2.9 36 +18 +21 1021.5 1024.4 +14.8
09 21.05 С 6 20 км ясно +18.8 +3.4 36 +19 +26 1022.3 1025.2
12 21.05 СВ 5 20 км ясно +18.1 +2.1 34 +18 +23 1023.0 1025.9
15 21.05 СВ 3 20 км ясно +17.2 +0.2 32 +17 +18 1022.6 1025.5 +19.0
18 21.05 СВ 4 20 км ясно +14.3 +1.7 42 +13 +13 1023.1 1026.0 +19.0
21 21.05 В 7 20 км ясно +17.3 +1.1 34 +16 +16 1022.2 1025.1
00 22.05 В 5 20 км ясно +15.1 +3.4 45 +14 +14 1022.5 1025.4
03 22.05 В 7 20 км ясно +17.3 +1.1 34 +16 +17 1022.2 1025.1
06 22.05 В 9 20 км 8/0
[Ci fib]
+19.5 +2.1 31 +19 +20 1022.3 1025.2 +14.9
09 22.05 В 7 20 км 8/0
[Ci fib]
+21.1 +1.9 28 +21 +25 комфорт 1020.6 1023.5
12 22.05 СВ 6 20 км 8/0
[Ci sp]
+22.8 +0.2 22 +22 +25 комфорт 1018.4 1021.3
15 22.05 С 6 20 км 9/0
[Ci sp]
+21.0 +8.6 45 +22 +23 комфорт 1017.7 1020.6 +23.1
18 22.05 СВ 4 20 км 8/0
[Ci sp]
+19.4 +11.2 59 +21 +21 комфорт 1017.1 1020.0 +23.1
21 22.05 В 3 20 км 9/0
[Ci sp]
+18.7 +11.4 63 +20 +20 1016.4 1019.3
00 23.05 СВ 5 20 км 8/0
[Ci fib]
+18.2 +11.7 66 +18 +18 1015.9 1018.8
03 23.05 ЮВ 2 20 км 9/9 600 м
[Sc]
+18.1 +8.0 52 +19 +19 1014.0 1016.9
06 23.05 ЮЗ 5 20 км 9/9 600 м
[Sc]
+17.8 +10.3 61 +17 +18 1013.2 1016.1 +17.9
09 23.05 Ю 1 20 км 9/9 600 м
[Sc]
+17.5 +6.7 49 +19 +21 1013.0 1015.9
12 23.05 В 6 20 км 9/9 600 м
[Sc]
+18.7 +10.5 59 +19 +19 1011.9 1014.7
15 23.05 В 2 20 км 3/0
[Ci fib]
+18.1 +8.9 55 +19 +20 1011.0 1013.8 +19.0
18 23.05 Ю 2 20 км 5/5 600 м
[Sc]
+14.0 +8.9 71 +14 +14 1010.9 1013.8 +19.0
21 23.05 ЮВ 3 20 км 6/6 600 м
[Sc]
+13.6 +9.3 75 +12 +12 1011.2 1014.1
00 24.05 ЮВ 4 20 км 8/8 600 м
[Sc]
+13.1 +9.2 77 +11 +11 1011.7 1014.6
03 24.05 З 11 20 км 8/8 600 м
[Sc]
+19.6 +15.1 75 +21 +21 комфорт 1010.0 1012.8
06 24.05 З 7 20 км 9/9 600 м
[Sc]
+20.6 +13.4 63 +23 +23 комфорт 1010.4 1013.2 +12.9
09 24.05 ЮЗ 6 20 км 6/6 600 м
[Sc]
+21.2 +13.4 61 +24 +27 комфорт 1010.6 1013.4
12 24.05 ЮЗ 6 20 км 4/0
[Ac trans]
+21.5 +15.4 68 +25 +28 комфорт 1010.5 1013.3
15 24.05 ЮЗ 8 20 км ясно +18.6 +16.8 89 +19 +19 1012.4 1015.3
18 24.05 ЮЗ 9 20 км ясно +19.2 +11.7 62 +19 +19 1011.7 1014.5 +21.8
21 24.05 ЮЗ 8 20 км ясно +18.6 +16.8 89 +19 +19 1012.4 1015.3
00 25.05 ЮЗ 10 20 км 3/0
[Ci fib]
+18.2 +16.5 90 +17 +17 1013.0 1015.9 +17.9
03 25.05 Ю 4 20 км 3/0
[Ci fib]
+19.8 +15.4 76 +22 +23 комфорт 1013.3 1016.2
06 25.05 Ю 6 20 км 6/0
[Ci fib]
+21.4 +14.6 65 +24 +29 комфорт 1013.9 1016.8 +17.9
09 25.05 Ю 7 20 км ясно +22.7 +13.4 56 +26 +31 жарко 1014.1 1016.9
12 25.05 Ю 7 20 км 6/0
[Ci fib]
+23.5 +11.0 45 +25 +27 комфорт 1012.7 1015.5
15 25.05 С 4 20 км 8/0
[Ci sp]
+19.6 +17.5 88 +22 +22 комфорт 1011.0 1013.8
18 25.05 С 2 20 км 8/0
[Ci sp]
+19.0 +13.7 71 +21 +21 комфорт 1012.2 1015.2 +23.8
21 25.05 С 4 20 км 8/0
[Ci sp]
+19.6 +17.5 88 +22 +22 комфорт 1011.0 1013.8
00 26.05 В 7 20 км 8/0
[Ci sp]
+22.2 +15.3 65 +26 +26 душно 1010.3 1013.1
03 26.05 В 6 20 км 9/4 600 м
[Cu med, cong Ci sp]
+19.9 +16.6 81 +22 +23 комфорт 1010.5 1013.3
06 26.05 СВ 5 20 км 4/0
[Cc]
+23.1 +16.4 66 +28 +34 душно 1011.4 1014.2 +19.4

 

Местоположение метеостанции Кулалы Остров (Мангистауская область, Казахстан): широта 45.01 долгота 50.03 высота над уровнем моря -24 м.

В архиве по умолчанию представлена погода на Кулалы Острове за последнюю неделю. Архивные данные за месяц целиком и за предыдущие месяцы, начиная с января 2011 года, Вы можете получить, выбрав интересующий диапазон дат из раскрывающегося списка и нажав кнопку "Ввод!".


*Определитесь, кто Вы:
робот инопланетянин человек

Внимание! Время в таблицах - всемирное. Для получения местного времени необходимо прибавить поправку, которая равна 4 ч.

Смотрите также архив погоды в соседних городах и на ближайших метеорологических станциях:

Погода в Форте-Шевченко (Мангистауская область, Казахстан) (54 км)
Погода в Кызане (Мангистауская область, Казахстан) (156 км)
Погода в Зеленге (Астраханская область, Россия) (170 км)
Погода в Тущыбеке (Мангистауская область, Казахстан) (180 км)
Погода в Актау (Мангистауская область, Казахстан) (180 км)
Погода в Ганюшкино (Атырауская область, Казахстан) (186 км)
Погода в Исатай (Атырауская область, Казахстан) (199 км)
Погода на Острове Тюлений (Дагестан, Россия) (210 км)
Погода в Астрахани (Астраханская область, Россия) (213 км)
Погода в Лагани (Калмыкия, Россия) (214 км)

Пояснения к столбцам:

Ветер - указаны скорость ветра в м/с - средняя за 10 мин, порывы в срок и между сроками (в фигурных скобках) и направление, откуда дует ветер: С - северный, СВ - северо-восточный, В - восточный, ЮВ - юго-восточный, Ю - южный, ЮЗ - юго-западный, З - западный, СЗ - северо-западный.
Видимость - горизонтальная дальность видимости в метрах или километрах. При видимости от 1 до 10 км при отсутствии осадков обычно наблюдается дымка, при ухудшении видимости до 1 км и менее - туман. В сухую погоду видимость может ухудшаться дымом, пылью или мглою.
Явления - указаны атмосферные явления, наблюдавшиеся в срок или в последний час перед сроком; фигурными скобками обозначены явления, наблюдавшиеся между сроками (за 1-3 часа до срока); квадратными скобками обозначены град или гололедные отложения с указанием их диаметра в мм.
Облачность - указаны через наклонную черту общая и нижняя облачность в баллах и высота нижней границы облаков в метрах; квадратными скобками обозначены формы облаков: Ci - перистые, Cs - перисто-слоистые, Cc - перисто-кучевые, Ac - высококучевые, As - высокослоистые, Sc - слоисто-кучевые, Ns - слоисто-дождевые, Cu - кучевые, Cb - кучево-дождевые. Подробнее классификацию облаков см. в Атласе облаков (PDF).
T - Температура воздуха - температура, измеренная на высоте 2 м над землей.
Td - Температура точки росы - температура, при понижении до которой содержащийся в воздухе водяной пар достигнет насыщения.
f - Относительная влажность воздуха - влажноcть воздуха, измеренная на высоте 2 м над землей.
Te - Эффективная температура - температура, которую ощущает одетый по сезону человек в тени. Характеристика душности погоды. При расчете учитывается влияние влажности воздуха и скорости ветра на теплоощущения человека.
Tes - Эффективная температура на солнце - температура, которую ощущает человек, с поправкой на солнечный нагрев. Характеристика знойности погоды. Зависит от высоты солнца над горизонтом, облачности и скорости ветра. Ночью, в пасмурную погоду, а также при ветре 12 м/с и более поправка равна нулю.
P - Атмосферное давление - приведенное к уровню моря атмосферное давление.
Po - Атмосферное давление - измеренное на уровне метеостанции атмосферное давление.
Tmin - Минимальная температура - минимум температуры воздуха на высоте 2 м над землей.
Tmax - Максимальная температура - максимум температуры воздуха на высоте 2 м над землей.
R - Количество осадков - Количество выпавших осадков за период времени, мм. При наведении курсора мыши на число - период времени, за который выпало указанное количество осадков.
R24 - Количество осадков - Количество выпавших осадков за 24 часа, мм.
S - Снежный покров - Высота снежного покрова, см. При наведении курсора мыши на число - состояние снежного покрова и степень покрытия местности в баллах.